Wind_Speed
2 2 2 2 2 2 3 2 1 1 2 3 4 4 4 5 5 5 5 6 6 6 6 6 6 6 6 5 5 6 6 6 6 6 7 7 7 6 5 6 7 6 6
3 3 2 2 2 2 2 2 2 2 3 4 5 5 5 5 5 5 5 5 6 6 6 6 6 6 6 5 5 5 5 7 6 6 7 7 7 6 7 6 7 7 7
3 3 2 2 3 3 3 2 2 2 2 3 5 5 5 6 6 5 5 6 6 6 6 6 7 6 6 5 5 5 5 6 6 6 6 6 6 6 7 7 7 7 8
4 4 3 3 3 3 3 3 3 2 2 3 4 5 5 6 6 6 6 6 6 7 7 7 7 7 7 7 7 6 6 6 6 6 7 7 7 7 8 8 8 8 8
4 4 4 4 4 4 4 4 3 3 3 4 4 5 5 6 6 6 6 6 7 7 8 8 8 7 7 8 8 8 7 7 7 7 7 8 8 8 9 9 9 9 9
5 5 4 4 4 4 4 5 5 5 5 5 6 6 6 6 6 6 7 7 7 8 8 8 9 9 8 8 8 8 8 8 8 8 8 8 9 9 9 9 9 10 10
5 5 5 5 5 5 5 6 6 6 6 7 7 7 6 6 6 7 7 7 8 8 8 8 9 8 8 8 9 8 8 8 8 9 8 9 9 10 9 9 10 11 11
5 6 6 6 6 6 6 6 6 6 7 7 7 7 7 7 8 8 8 8 9 8 8 8 8 9 9 9 9 9 10 10 10 10 10 10 10 10 10 11 11 12 12
5 6 6 6 6 6 7 7 7 7 6 7 7 7 7 8 8 8 8 8 9 9 8 8 9 9 9 10 10 10 10 10 11 11 11 10 10 11 11 12 12 12 12
5 5 6 5 5 6 7 7 7 7 7 8 8 8 8 8 8 9 8 9 9 9 9 9 9 9 9 10 10 10 10 10 11 11 11 10 10 10 11 12 12 12 12
4 5 6 6 6 6 6 6 7 7 7 7 8 8 8 8 9 9 9 10 10 10 10 10 10 10 10 10 10 11 11 11 11 11 11 11 11 11 12 12 12 13 13
5 6 6 6 6 6 6 7 7 7 7 8 8 8 8 8 9 9 10 10 10 10 10 10 10 10 10 10 10 10 10 10 9 9 10 11 12 12 12 12 12 13 13
6 6 6 6 6 6 7 7 7 7 7 8 8 8 8 8 9 9 10 10 9 10 10 10 10 10 10 9 9 9 9 9 9 9 10 11 11 12 12 12 13 13 13
5 5 5 5 5 6 7 7 7 7 7 7 7 8 8 8 9 10 9 9 9 10 10 10 10 10 9 9 9 9 9 9 9 10 10 11 11 12 12 13 13 14 14
6 5 6 5 5 6 6 7 7 8 8 8 8 8 8 8 8 9 9 9 9 9 9 9 10 10 10 10 9 9 9 9 10 10 11 11 12 12 13 14 14 14 14
6 6 6 6 6 6 6 7 7 8 8 8 8 9 9 8 8 8 8 9 9 9 10 10 11 10 11 10 10 9 9 10 10 11 11 11 11 12 12 12 13 13 14
6 6 6 6 6 7 7 7 8 8 8 9 9 9 9 9 8 8 8 8 8 9 9 10 10 11 10 10 10 10 10 10 11 11 11 11 11 12 12 12 12 13 14
6 6 6 6 6 7 7 8 8 9 8 8 8 9 9 9 8 8 8 8 9 9 9 9 9 10 10 11 11 11 11 11 11 11 12 12 12 12 12 13 13 14 14
7 6 6 6 6 7 8 8 9 8 8 8 8 9 9 9 9 8 8 9 9 9 9 9 10 10 10 10 11 11 11 11 11 12 12 13 12 13 13 13 13 14 14
7 7 7 7 7 7 8 8 9 9 9 8 9 9 9 9 9 9 9 10 10 10 10 10 11 11 11 11 11 11 11 12 12 12 12 13 13 13 13 13 14 13 14
7 7 7 8 8 8 8 9 8 9 8 8 9 9 9 9 9 9 10 10 11 11 11 11 11 11 11 11 12 12 12 13 13 14 13 13 13 13 14 13 14 14 14
8 8 8 9 9 10 10 10 10 10 9 10 10 9 9 9 10 10 10 10 11 11 11 12 12 12 12 13 13 13 13 14 14 15 15 15 14 14 13 13 13 13 14
9 9 9 10 11 11 12 11 11 11 11 10 10 10 10 11 11 11 10 10 11 11 12 12 13 13 13 13 14 14 14 14 14 15 15 15 15 15 14 14 13 13 13
10 10 11 11 12 12 12 12 12 12 12 11 11 12 11 12 12 12 12 11 11 12 12 13 13 13 13 13 14 14 14 15 15 15 16 16 15 15 15 14 14 14 14
11 11 12 12 13 12 13 13 13 13 13 13 13 13 13 13 13 13 13 13 13 13 13 13 13 14 14 13 13 14 14 15 15 15 16 15 15 15 15 15 15 15 14
12 12 13 13 13 14 14 14 14 14 14 14 15 15 14 14 14 14 14 14 14 14 14 14 14 14 14 14 14 15 16 16 16 16 15 15 15 15 15 15 14 15 15
Wind_Direction
300 318 333 343 11 21 11 10 354 245 239 223 215 207 197 197 196 201 207 217 226 229 232 236 241 243 246 251 245 243 242 242 240 236 230 227 229 240 244 240 239 248 246
277 287 295 307 318 335 343 345 319 286 260 236 221 214 210 211 211 211 223 225 234 236 235 237 244 245 245 247 250 245 238 236 239 236 230 229 232 242 250 246 246 254 250
264 274 276 281 294 308 312 313 309 288 273 227 210 213 218 222 224 229 231 233 236 239 240 241 245 247 247 246 247 239 236 236 237 240 241 241 241 247 248 245 248 254 250
268 269 266 268 275 284 292 297 296 265 230 207 206 220 229 229 233 241 243 241 239 243 241 243 249 251 250 254 256 253 249 247 247 247 243 247 251 257 255 249 250 253 256
268 266 262 263 266 272 276 277 275 254 233 232 234 239 240 241 243 250 248 244 244 246 245 247 251 251 255 256 257 257 255 256 251 250 246 252 255 262 263 256 256 259 264
262 263 258 259 262 261 264 268 272 271 259 251 246 244 248 253 257 254 250 248 247 249 248 249 250 252 255 256 256 253 255 260 259 254 252 255 259 263 263 262 261 265 268
266 258 257 257 261 261 261 266 269 272 266 258 253 250 252 258 257 255 252 252 255 257 252 253 253 255 257 256 254 255 259 266 266 260 260 261 263 267 266 265 264 264 268
271 259 255 259 262 264 266 268 273 274 268 261 256 255 258 258 258 252 253 259 262 261 263 260 258 259 257 257 257 259 264 269 271 269 267 266 269 272 269 264 266 265 266
273 264 260 265 269 269 271 270 266 268 266 260 262 261 262 262 261 257 257 262 262 263 264 262 262 264 261 261 262 266 269 267 268 271 270 269 267 269 268 266 267 268 269
270 267 270 268 277 277 276 275 270 267 265 263 261 262 263 265 265 266 262 265 263 261 260 260 262 264 264 263 265 269 268 266 266 268 269 266 267 271 269 265 265 268 269
259 264 273 269 270 274 275 275 274 274 272 269 267 267 267 266 268 269 269 268 264 261 260 259 261 263 265 267 269 271 269 267 267 266 266 268 269 272 270 265 266 267 268
274 272 269 275 274 269 271 279 279 280 278 275 272 271 270 267 267 270 273 272 270 268 267 264 263 264 268 270 270 273 274 271 270 268 268 271 271 271 273 270 267 268 268
277 277 274 272 273 275 276 280 281 281 280 275 271 271 272 270 270 271 275 275 274 270 268 267 267 266 267 271 276 277 279 277 277 275 274 275 273 272 273 274 273 270 269
280 279 277 278 280 281 281 281 280 280 282 279 274 273 273 272 270 271 272 272 272 273 268 264 264 263 268 272 277 281 282 279 277 278 278 276 276 276 276 277 276 273 272
283 283 281 281 281 281 284 284 282 280 282 280 279 280 276 275 276 277 275 272 272 272 270 268 271 270 273 277 278 278 279 276 276 278 277 277 276 277 277 276 275 274 274
280 281 282 282 283 287 288 287 288 285 283 280 279 279 276 278 279 279 274 272 272 274 276 277 276 278 280 280 280 280 280 278 278 276 278 279 281 281 282 281 279 277 275
281 280 281 282 285 287 289 290 289 287 288 284 281 278 275 276 275 275 273 272 272 275 276 277 278 279 279 278 279 280 279 275 274 277 279 280 283 283 282 283 281 280 278
281 280 281 280 285 289 289 289 287 283 282 283 280 279 276 272 269 269 271 275 277 279 282 283 282 281 279 277 277 280 280 277 276 277 279 282 284 285 286 285 284 281 280
280 282 284 283 287 290 289 289 287 283 280 279 277 279 278 272 269 266 268 273 276 279 282 284 284 282 279 278 278 279 279 278 278 279 280 282 284 285 287 287 286 285 281
277 280 283 286 289 291 291 290 286 282 280 280 279 279 279 275 271 266 268 270 272 275 277 279 281 282 280 279 280 280 281 279 280 280 281 283 284 285 287 287 286 284 283
273 278 283 289 290 289 291 291 285 284 280 281 280 283 283 281 276 273 272 270 270 273 275 276 278 279 280 281 282 283 282 282 282 281 282 283 284 286 287 286 285 285 284
269 274 282 286 288 287 287 285 283 281 280 283 285 286 284 284 282 281 276 274 272 274 274 274 275 278 280 281 283 284 284 283 282 280 281 282 282 284 286 285 284 285 285
271 274 280 284 285 285 284 281 280 277 276 282 285 286 283 282 284 282 279 274 273 275 276 275 275 278 281 282 283 285 285 283 283 282 282 280 281 281 282 283 283 284 283
274 276 280 283 283 283 282 278 276 275 275 277 279 282 282 280 281 282 281 280 276 277 279 277 278 277 280 281 282 283 284 284 282 282 283 283 283 281 281 282 283 283 282
277 279 281 283 282 281 280 276 274 273 274 276 276 277 278 278 278 280 282 282 280 280 281 279 278 279 280 282 283 285 286 286 286 285 284 283 283 281 280 280 280 282 279
279 279 279 280 281 281 281 277 274 272 272 273 274 275 275 276 276 277 280 283 284 282 281 281 278 278 280 282 283 285 286 287 287 286 286 284 281 282 282 280 280 281 280
Height
5871 5871 5870 5869 5869 5868 5868 5867 5866 5866 5866 5866 5866 5867 5868 5869 5870 5871 5871 5872 5872 5872 5872 5872 5873 5873 5873 5872 5872 5872 5871 5871 5871 5871 5871 5871 5872 5872 5873 5873 5873 5873 5873
5871 5870 5870 5869 5869 5869 5868 5868 5867 5865 5864 5863 5864 5866 5868 5869 5870 5870 5871 5871 5871 5871 5871 5872 5872 5872 5872 5871 5871 5871 5871 5871 5871 5870 5870 5871 5871 5872 5872 5872 5872 5872 5872
5870 5870 5870 5869 5869 5869 5868 5868 5867 5865 5862 5859 5861 5865 5867 5868 5869 5870 5870 5870 5871 5871 5871 5871 5871 5871 5871 5871 5871 5871 5871 5870 5870 5870 5870 5870 5870 5871 5871 5871 5871 5871 5870
5869 5869 5869 5869 5869 5869 5868 5868 5867 5865 5863 5861 5863 5866 5867 5868 5869 5869 5869 5870 5870 5870 5870 5870 5870 5870 5870 5870 5870 5870 5870 5869 5869 5869 5869 5869 5869 5870 5869 5869 5869 5869 5869
5868 5868 5868 5868 5868 5868 5868 5867 5867 5866 5865 5864 5865 5866 5867 5868 5868 5868 5868 5869 5869 5869 5869 5869 5869 5869 5869 5869 5869 5869 5869 5869 5868 5868 5868 5868 5868 5868 5868 5868 5868 5868 5868
5867 5867 5867 5867 5867 5867 5867 5867 5867 5866 5866 5865 5865 5866 5866 5867 5867 5867 5868 5868 5868 5868 5868 5868 5867 5867 5868 5868 5868 5868 5868 5867 5867 5867 5867 5867 5867 5867 5866 5866 5866 5866 5866
5866 5865 5866 5866 5866 5866 5866 5866 5866 5866 5865 5865 5865 5865 5865 5866 5866 5866 5866 5867 5867 5867 5867 5866 5866 5866 5866 5866 5866 5866 5866 5866 5866 5866 5865 5865 5865 5865 5864 5864 5864 5864 5864
5864 5864 5864 5864 5865 5865 5865 5865 5865 5865 5864 5864 5864 5864 5864 5865 5865 5865 5865 5865 5865 5865 5865 5865 5865 5865 5865 5864 5864 5864 5864 5864 5864 5864 5864 5863 5863 5863 5862 5862 5862 5862 5862
5862 5863 5863 5863 5863 5863 5863 5863 5863 5863 5863 5863 5863 5863 5863 5864 5864 5864 5864 5864 5864 5864 5864 5864 5863 5863 5863 5863 5863 5862 5862 5862 5861 5861 5861 5861 5861 5860 5860 5860 5860 5860 5860
5861 5861 5862 5862 5862 5862 5862 5862 5862 5862 5862 5862 5862 5862 5862 5862 5862 5862 5862 5862 5862 5861 5861 5862 5861 5861 5861 5861 5860 5860 5860 5859 5859 5859 5859 5859 5858 5858 5857 5857 5857 5857 5857
5860 5860 5860 5860 5860 5860 5860 5860 5860 5860 5860 5860 5860 5860 5860 5860 5860 5860 5860 5860 5860 5860 5859 5859 5859 5859 5859 5859 5858 5858 5857 5857 5857 5857 5857 5856 5856 5855 5855 5855 5854 5854 5854
5859 5859 5859 5859 5859 5859 5859 5859 5858 5858 5858 5858 5858 5858 5858 5858 5858 5858 5858 5857 5857 5858 5858 5857 5857 5857 5857 5856 5856 5856 5855 5855 5854 5854 5854 5854 5854 5853 5852 5852 5852 5852 5852
5858 5858 5857 5858 5857 5857 5857 5857 5857 5857 5857 5856 5856 5856 5856 5856 5856 5856 5855 5855 5855 5855 5855 5855 5855 5855 5855 5854 5854 5854 5853 5853 5853 5852 5852 5852 5851 5851 5850 5850 5850 5849 5849
5856 5856 5856 5856 5856 5856 5855 5855 5855 5855 5855 5855 5854 5854 5854 5854 5854 5853 5853 5853 5853 5853 5853 5853 5852 5852 5852 5852 5852 5852 5851 5851 5851 5850 5850 5849 5849 5848 5848 5847 5847 5846 5846
5855 5854 5854 5854 5854 5854 5854 5853 5853 5853 5853 5853 5852 5852 5852 5852 5851 5851 5850 5850 5850 5851 5851 5850 5850 5850 5850 5850 5850 5849 5849 5849 5848 5848 5847 5847 5846 5846 5845 5844 5843 5843 5842
5853 5853 5852 5852 5852 5852 5852 5852 5851 5851 5851 5850 5850 5850 5850 5849 5849 5849 5849 5848 5848 5848 5848 5848 5848 5848 5848 5847 5847 5847 5846 5846 5846 5845 5845 5844 5843 5843 5842 5841 5840 5840 5839
5851 5851 5851 5850 5850 5850 5850 5849 5849 5849 5848 5848 5848 5847 5847 5847 5847 5846 5846 5846 5846 5846 5846 5846 5846 5845 5845 5845 5845 5844 5844 5843 5843 5842 5842 5841 5841 5840 5839 5838 5837 5836 5836
5849 5849 5849 5849 5848 5848 5847 5847 5846 5846 5846 5846 5845 5845 5845 5845 5845 5844 5844 5844 5844 5844 5844 5843 5843 5843 5843 5843 5842 5842 5841 5841 5840 5840 5839 5838 5838 5837 5836 5835 5834 5833 5832
5847 5847 5847 5846 5846 5846 5845 5845 5844 5844 5843 5843 5843 5843 5842 5842 5842 5842 5842 5842 5842 5842 5841 5841 5841 5841 5840 5840 5840 5839 5839 5838 5837 5837 5836 5835 5835 5834 5833 5832 5831 5830 5829
5845 5845 5845 5844 5844 5843 5843 5842 5841 5841 5841 5841 5841 5840 5840 5840 5840 5839 5840 5839 5839 5839 5839 5839 5838 5838 5838 5837 5837 5836 5836 5835 5834 5834 5833 5832 5831 5831 5830 5829 5828 5827 5826
5843 5843 5842 5842 5841 5841 5840 5839 5839 5838 5838 5838 5838 5837 5837 5837 5837 5837 5837 5836 5836 5836 5836 5836 5836 5835 5835 5835 5834 5834 5833 5832 5831 5831 5830 5829 5828 5827 5826 5825 5825 5824 5823
5840 5840 5840 5839 5839 5838 5837 5837 5836 5836 5836 5835 5835 5835 5834 5834 5834 5834 5834 5833 5833 5833 5833 5833 5833 5832 5832 5832 5831 5830 5830 5830 5828 5827 5826 5826 5825 5824 5823 5822 5821 5820 5819
5838 5837 5837 5836 5836 5835 5835 5834 5834 5834 5833 5833 5832 5832 5831 5831 5831 5831 5830 5830 5830 5830 5830 5830 5829 5829 5829 5828 5828 5827 5826 5826 5825 5824 5822 5822 5821 5820 5819 5818 5817 5816 5815
5834 5834 5834 5833 5833 5832 5831 5831 5830 5830 5830 5830 5829 5829 5829 5828 5828 5827 5827 5827 5827 5827 5826 5826 5826 5825 5825 5825 5824 5823 5823 5822 5821 5820 5819 5817 5816 5815 5815 5814 5813 5812 5812
5831 5830 5830 5829 5829 5828 5827 5827 5826 5826 5826 5826 5825 5825 5825 5825 5824 5824 5824 5824 5823 5823 5823 5822 5822 5821 5821 5821 5820 5819 5818 5817 5816 5816 5815 5813 5812 5811 5810 5810 5809 5808 5808
5827 5826 5826 5825 5825 5824 5823 5822 5822 5822 5822 5821 5821 5821 5821 5821 5820 5820 5820 5819 5819 5818 5818 5818 5818 5817 5817 5816 5816 5815 5814 5813 5812 5811 5810 5809 5808 5807 5806 5806 5805 5804 5804